Flag for U.S.A. Weather past 2 weeks in Los Angeles, California, U.S.A.

Now
74 °F

Sunny.


Feels Like: 77 °F
Forecast: 49 / 74 °F
Wind: No wind

Location: Los Angeles / USC Campus Downtown

Current Time: Feb 1, 2015 at 1:40:07 PM

Latest Report: Feb 1, 2015 at 12:47 PM


Visibility: 10 mi

Pressure: 30.06 "Hg

Humidity: 32%

Dew point: 42 °F

Location of Los AngelesLocation

Historic Weather in Los Angeles — Graph

°F

Los Angeles temperature yesterday

Maximum temperature yesterday: 70 °F (at 12:47 PM)
Minimum temperature yesterday: 57 °F (at 10:47 PM)
Average temperature yesterday: 61 °F

Past Weeks' High & Low Weather Summary

 TemperatureHumidityPressure
High82 °F (Jan 25, 1:47 PM)97% (Jan 20, 2:47 AM)30.24 "Hg (Jan 20, 2:47 AM)
Low48 °F (Jan 22, 4:47 AM)10% (Jan 23, 12:47 PM)29.83 "Hg (Jan 31, 3:47 AM)
Average62 °F57%30.05 "Hg
* Reported Jan 17 11:47 AM — Feb 1 11:47 AM, Los Angeles, Weather by CustomWeather, © 2014

Note: Actual official high and low records may vary slightly from our data, if they occured in-between our weather recording intervals... More about our weather records

Advertising

Los Angeles weather history for previous 24 hours

 ConditionsComfort  
Time TempWeatherWind HumidityBarometerVisibility
11:47 AM
Feb 1
73 °FSunny.No wind38%30.09 "Hg10 mi
10:47 AM69 °FSunny.No wind47%30.11 "Hg10 mi
9:47 AM63 °FSunny.5 mph63%30.11 "Hg9 mi
8:47 AM60 °FSunny.6 mph53%30.09 "Hg10 mi
7:47 AM54 °FSunny.No wind72%30.08 "Hg4 mi
6:47 AM50 °FClear.No wind83%30.06 "Hg10 mi
5:47 AM51 °FClear.No wind83%30.04 "Hg10 mi
4:47 AM51 °FClear.No wind86%30.02 "Hg8 mi
3:47 AM52 °FClear.No wind86%30.01 "Hg8 mi
2:47 AM53 °FClear.No wind86%30.01 "Hg7 mi
1:47 AM54 °FFog.No wind86%30.00 "Hg6 mi
12:47 AM56 °FClear.No wind87%29.99 "Hg7 mi
11:47 PM
Jan 31
57 °FClear.No wind83%29.99 "Hg7 mi
10:47 PM57 °FClear.No wind87%29.98 "Hg7 mi
9:47 PM59 °FClear.No wind84%29.97 "Hg9 mi
8:47 PM59 °FClear.No wind84%29.96 "Hg10 mi
7:47 PM60 °FClear.No wind80%29.95 "Hg10 mi
6:47 PM61 °FClear.No wind78%29.93 "Hg10 mi
5:47 PM62 °FClear.No wind70%29.91 "Hg10 mi
4:47 PM64 °FSunny.3 mph68%29.89 "Hg10 mi
3:47 PM67 °FSunny.6 mph59%29.88 "Hg10 mi
2:47 PM68 °FSunny.3 mph61%29.88 "Hg10 mi
1:47 PM69 °FPassing clouds.No wind57%29.87 "Hg10 mi
Weather by CustomWeather, © 2014

See weather overviewHow to use our weather pages